DW2199 Weather Reports


Display with metric or nautical units.
time (UTC)temp
F
wind
direction
speed
MPH
gust
MPH
rain 1hr
in
rain 24hr
in
rain mn
in
humidity
%
barometer
mb
20260905231514 70 343 0.0 0.0 0.00 0.00 0.00 77 1012.0
20260905230011 70 343 0.0 1.0 0.00 0.00 0.00 76 1011.8
20260905224517 70 343 0.0 1.0 0.00 0.00 0.00 75 1011.7
20260905223008 71 343 0.0 1.0 0.00 0.00 0.00 72 1011.6
20260905221519 72 343 0.0 1.0 0.00 0.00 0.00 74 1011.5
20260905220005 72 343 0.0 1.0 0.00 0.00 0.00 71 1011.4
20260905214546 73 343 0.0 2.0 0.00 0.00 0.00 68 1011.4
20260905213048 74 342 0.0 1.0 0.00 0.00 0.00 71 1011.2
20260905211533 75 343 0.0 2.0 0.00 0.00 0.00 64 1011.2
20260905210030 76 343 0.0 1.0 0.00 0.00 0.00 62 1011.1
20260905204515 79 343 0.0 3.0 0.00 0.00 0.00 57 1010.9
20260905203014 79 343 1.0 4.0 0.00 0.00 0.00 59 1010.7
20260905201517 78 343 1.0 5.0 0.00 0.00 0.00 56 1010.7
20260905200011 76 183 1.0 6.0 0.00 0.00 0.00 60 1010.6
20260905194510 76 201 1.0 3.0 0.00 0.00 0.00 62 1010.6
20260905193012 76 193 1.0 5.0 0.00 0.00 0.00 60 1010.6
20260905191509 77 174 0.0 4.0 0.00 0.00 0.00 61 1010.7
20260905190007 77 184 0.0 7.0 0.00 0.00 0.00 60 1010.6
20260905184611 78 178 1.0 5.0 0.00 0.00 0.00 59 1010.7
20260905183054 78 247 0.0 9.0 0.00 0.00 0.00 59 1010.6
20260905181551 77 190 0.0 9.0 0.00 0.00 0.00 62 1010.6
20260905180048 76 243 0.0 8.0 0.00 0.00 0.00 63 1010.7
20260905174554 76 193 0.0 4.0 0.00 0.00 0.00 62 1010.7
20260905173045 76 181 1.0 4.0 0.00 0.00 0.00 63 1010.7
20260905171540 75 197 1.0 6.0 0.00 0.00 0.00 65 1010.7
20260905170040 74 201 1.0 5.0 0.00 0.00 0.00 65 1010.8
20260905164526 74 181 0.0 3.0 0.00 0.00 0.00 68 1010.9
20260905163026 74 181 0.0 3.0 0.00 0.00 0.00 69 1010.8
20260905161522 75 190 1.0 4.0 0.00 0.00 0.00 70 1010.9
20260905160022 74 174 0.0 3.0 0.00 0.00 0.00 73 1011.2
20260905154516 72 176 1.0 4.0 0.00 0.00 0.00 74 1011.2
20260905153015 70 188 1.0 3.0 0.00 0.00 0.00 79 1011.3
20260905151511 69 210 0.0 1.0 0.00 0.00 0.00 78 1011.6
20260905150011 70 177 0.0 2.0 0.00 0.00 0.00 77 1011.6
20260905144552 70 204 0.0 1.0 0.00 0.00 0.00 75 1011.3
20260905143052 70 205 0.0 2.0 0.00 0.00 0.00 76 1011.2
20260905141541 70 190 0.0 1.0 0.00 0.00 0.00 75 1011.2
20260905140034 70 190 0.0 1.0 0.00 0.00 0.00 76 1011.3
20260905134523 69 190 0.0 1.0 0.00 0.00 0.00 78 1011.4
20260905133023 68 190 0.0 1.0 0.00 0.00 0.00 79 1011.4
20260905131540 67 190 0.0 3.0 0.00 0.00 0.00 83 1011.3
20260905130021 64 197 1.0 2.0 0.00 0.00 0.00 86 1011.1
20260905124535 63 190 0.0 1.0 0.00 0.00 0.00 90 1011.2
20260905123018 62 188 0.0 0.0 0.00 0.00 0.00 92 1011.1
20260905121523 61 188 0.0 0.0 0.00 0.00 0.00 94 1011.0
20260905120015 60 188 0.0 0.0 0.00 0.00 0.00 95 1010.9
20260905114508 59 188 0.0 1.0 0.00 0.00 0.00 95 1010.8
20260905113003 58 188 0.0 0.0 0.00 0.00 0.00 95 1010.6
20260905111501 58 188 0.0 0.0 0.00 0.00 0.00 95 1010.7
20260905110100 57 188 0.0 0.0 0.00 0.00 0.00 94 1010.4
20260905104558 57 188 0.0 0.0 0.00 0.00 0.00 94 1010.3
20260905103058 57 188 0.0 0.0 0.00 0.00 0.00 94 1010.2
20260905101619 58 188 0.0 0.0 0.00 0.00 0.00 94 1010.1
20260905100054 58 188 0.0 0.0 0.00 0.00 0.00 94 1010.0
20260905094542 58 188 0.0 0.0 0.00 0.00 0.00 93 1009.9
20260905093042 58 188 0.0 0.0 0.00 0.00 0.00 93 1009.8
20260905091539 59 188 0.0 0.0 0.00 0.00 0.00 93 1009.8
20260905090040 59 188 0.0 0.0 0.00 0.00 0.00 93 1009.7
20260905084557 59 188 0.0 0.0 0.00 0.00 0.00 93 1009.8
20260905083034 59 188 0.0 0.0 0.00 0.00 0.00 92 1009.8
20260905081532 59 188 0.0 0.0 0.00 0.00 0.00 92 1009.7
20260905080030 60 188 0.0 0.0 0.00 0.00 0.00 92 1009.7
20260905074514 60 188 0.0 1.0 0.00 0.00 0.00 92 1009.7
20260905073016 60 188 0.0 0.0 0.00 0.00 0.00 91 1009.7
20260905071511 61 188 0.0 0.0 0.00 0.00 0.00 91 1009.7
20260905070008 61 188 0.0 0.0 0.00 0.00 0.00 90 1009.9
20260905064506 62 188 0.0 0.0 0.00 0.00 0.00 90 1010.0
20260905063006 62 188 0.0 0.0 0.00 0.00 0.00 89 1009.9
20260905061502 63 188 0.0 1.0 0.00 0.00 0.00 88 1010.0
20260905060100 63 188 0.0 1.0 0.00 0.00 0.00 87 1010.0
20260905054600 64 188 0.0 0.0 0.00 0.00 0.00 87 1010.0
20260905053038 64 188 0.0 0.0 0.00 0.00 0.00 87 1009.9
20260905051539 64 188 0.0 0.0 0.00 0.00 0.00 85 1010.0
20260905050016 65 188 0.0 0.0 0.00 0.00 0.00 85 1010.0
20260905044516 66 188 0.0 1.0 0.00 0.00 0.00 82 1010.0
20260905043002 65 188 0.0 2.0 0.00 0.00 0.00 85 1010.1
20260905041600 66 188 0.0 0.0 0.00 0.00 0.00 84 1010.3
20260905040059 65 188 0.0 0.0 0.00 0.00 0.00 84 1010.2
20260905034559 66 188 0.0 0.0 0.00 0.00 0.00 85 1010.3
20260905033100 66 188 0.0 0.0 0.00 0.00 0.00 85 1010.3
20260905031600 66 188 0.0 1.0 0.00 0.00 0.00 86 1010.3
20260905030101 66 189 0.0 0.0 0.00 0.00 0.00 86 1010.2
20260905024626 66 189 0.0 0.0 0.00 0.00 0.00 86 1010.2
20260905023044 67 189 0.0 0.0 0.00 0.00 0.00 85 1010.3
20260905021543 67 188 0.0 0.0 0.00 0.00 0.00 86 1010.3
20260905020047 67 189 0.0 0.0 0.00 0.00 0.00 85 1010.3
20260905014538 68 189 0.0 0.0 0.00 0.00 0.00 84 1010.3
20260905013034 69 188 0.0 0.0 0.00 0.00 0.00 84 1010.3
20260905011533 69 189 0.0 0.0 0.00 0.00 0.00 83 1010.4
20260905010031 69 188 0.0 0.0 0.00 0.00 0.00 83 1010.4
20260905004531 69 189 0.0 0.0 0.00 0.00 0.00 82 1010.2
20260905003013 70 188 0.0 0.0 0.00 0.00 0.00 82 1010.2
20260905001511 70 189 0.0 0.0 0.00 0.00 0.00 82 1010.0
20260905000058 70 188 0.0 0.0 0.00 0.00 0.00 81 1009.9
20260904234556 71 188 0.0 1.0 0.00 0.00 0.00 80 1009.8
20260904233101 72 188 0.0 0.0 0.00 0.00 0.00 79 1009.7